Regional Weather Roundup
Issued by NWS

Home | Current Version | Previous Version | Text Only | Print | Product List | Glossary Off
Versions: 1 2 3 4 5 6 7 8 9 10 11 12 13 14 15 16 17 18 19 20 21 22 23 24 25 26 27 28 29 30 31 32 33 34 35 36 37 38 39 40 41 42 43 44 45 46 47 48 49 50

705
ASUS45 KABQ 141210
RWRNM
NEW MEXICO REGIONAL WEATHER ROUNDUP
NATIONAL WEATHER SERVICE ALBUQUERQUE NM
500 AM MST SUN FEB 14 2016

NOTE: "FAIR" MEANS FEW OR NO CLOUDS BELOW 12,000 FEET AGL WITH NO
       SIGNIFICANT WEATHER OR OBSTRUCTIONS TO VISION.

      THIS PRODUCT IS RELEASED AS TWO VERSIONS.  ONE VERSION NEAR
      THE TOP OF THE HOUR CONTAINING PRELIMINARY DATA FROM ALBUQUERQUE
      AND OTHER STATIONS.  A FINAL VERSION WITH ADDITIONAL DATA IS
      ISSUED ABOUT 10 MINUTES AFTER THE HOUR.

NMZ501-503-504-510>518-141300-
NORTHWEST PLATEAU/NORTHCENTRAL MOUNTAINS

CITY           SKY/WX    TMP DP  RH WIND       PRES   REMARKS
FARMINGTON     FAIR      31  21  66 W3        30.11F
6HR MIN TEMP:  31; 6HR MAX TEMP:  43;

LOS ALAMOS     FAIR      39  15  36 SW6       30.12R WCI  35
SANTA FE       FAIR      39  18  42 NW3       30.09S
6HR MIN TEMP:  36; 6HR MAX TEMP:  42;

TAOS           FAIR      25  19  80 CALM      30.13S
ANGEL FIRE     FAIR      17  12  83 SE3       30.14F

$$
NMZ402-403-502-505>509-141300-
WESTCENTRAL MOUNTAINS/SOUTHWEST MOUNTAINS

CITY           SKY/WX    TMP DP  RH WIND       PRES   REMARKS
GALLUP         FAIR      21  17  84 CALM      30.18F
6HR MIN TEMP:  20; 6HR MAX TEMP:  31;

GRANTS         FAIR      24  15  69 NW10      30.18S WCI  14
SILVER CITY      N/A     39  10  30 N13       30.11R WCI  32

$$
NMZ407-409-411-412-141300-
SOUTHERN DESERTS

CITY           SKY/WX    TMP DP  RH WIND       PRES   REMARKS
LORDSBURG      FAIR      34  16  47 CALM      30.07R
DEMING         FAIR      34  12  40 SW5       30.05S WCI  30
6HR MIN TEMP:  34; 6HR MAX TEMP:  44;

LAS CRUCES     FAIR      41  12  30 N7        30.05S
HOLLOMAN AFB   FAIR      33  10  37 NE2       30.01F
ALAMOGORDO     FAIR      39   9  28 NE5       30.02F
T OR C         FAIR      46  12  25 NW10      30.05F
6HR MIN TEMP:  42; 6HR MAX TEMP:  55;


$$
NMZ519>523-141300-
CENTRAL VALLEYS/CENTRAL HIGHLANDS

CITY           SKY/WX    TMP DP  RH WIND       PRES   REMARKS
ALBUQUERQUE    MOCLDY    36  14  40 SE6       30.11S WCI  31
6HR MIN TEMP:  36; 6HR MAX TEMP:  52;

DOUBLE EAGLE   FAIR      45  17  32 NW8       30.11S
MORIARTY ARPT  FAIR      28  14  57 E5        30.10R WCI  22
6HR MIN TEMP:  27; 6HR MAX TEMP:  46;

CLINES CORNERS FAIR      31  16  54 W12       30.08R WCI  22
6HR MIN TEMP:  31; 6HR MAX TEMP:  40;

BELEN          FAIR      33  13  43 N3        30.12S
6HR MIN TEMP:  29; 6HR MAX TEMP:  47;

SOCORRO        FAIR      40  11  31 N10       30.10R WCI  33
6HR MIN TEMP:  39; 6HR MAX TEMP:  52;


$$
NMZ524>526-539-540-141300-
SOUTHCENTRAL MOUNTAINS

CITY           SKY/WX    TMP DP  RH WIND       PRES   REMARKS
RUIDOSO          N/A     45   7  21 NW15G22   30.10F

$$
NMZ527>531-141300-
NORTHEAST HIGHLANDS/NORTHEAST PLAINS

CITY           SKY/WX    TMP DP  RH WIND       PRES   REMARKS
LAS VEGAS      FAIR      37  13  37 NE7       30.06S WCI  32
6HR MIN TEMP:  33; 6HR MAX TEMP:  47;

RATON          FAIR      32  14  47 NE10      30.03F WCI  24
6HR MIN TEMP:  25; 6HR MAX TEMP:  42;

CLAYTON        FAIR      34  23  64 N10       30.06R WCI  26
6HR MIN TEMP:  34; 6HR MAX TEMP:  54;


$$
NMZ532>537-141300-
EASTCENTRAL PLAINS

CITY           SKY/WX    TMP DP  RH WIND       PRES   REMARKS
TUCUMCARI      FAIR      43  26  51 NE18      30.04R
6HR MIN TEMP:  35; 6HR MAX TEMP:  50;

CANNON AFB     FAIR      46  17  31 NE17      30.01R
6HR MIN TEMP:  40; 6HR MAX TEMP:  50;

CLOVIS AIRPORT FAIR      46  25  42 NE28G38   30.04R

$$
NMZ028-029-538-141300-
SOUTHEAST PLAINS

CITY           SKY/WX    TMP DP  RH WIND       PRES   REMARKS
ROSWELL        FAIR      40  18  41 NE9G18    29.96R WCI  34
6HR MIN TEMP:  40; 6HR MAX TEMP:  51;

ARTESIA        FAIR      41  18  38 N6        29.96S
CARLSBAD       FAIR      36  22  56 NW8       29.94F WCI  30
6HR MIN TEMP:  33; 6HR MAX TEMP:  48;

HOBBS          FAIR      36  36 100 W5        29.97S WCI  32


$$




USA.gov is the U.S. government's official web portal to all federal, state and local government web resources and services.